Tracking 18876 objects as of 16-Dec-2017
HD Live streaming from Space Station
objects crossing your sky now

USA 11

Track USA 11 now!
USA 11 is classified as:


NORAD ID: 16116
Int'l Code: 1985-092B
Perigee: 36,139.4 km
Apogee: 36,177.6 km
Inclination: 15.3 °
Period: 1,454.8 minutes
Semi major axis: 42529 km
RCS: Unknown
Launch date: October 3, 1985
Source: United States (US)
Launch site: AIR FORCE EASTERN TEST RANGE (AFETR)
aabbcc
Your satellite tracking list
Your tracking list is empty




NASA's NSSDC Master Catalog

Two Line Element Set (TLE):
1 16116U 85092B   17321.27236484 0.00000000  00000-0  00000-0 0    02
2 16116  15.2977  12.4426 0004489 332.7719  27.2166  0.98984519    01
Source of the keplerian elements: McCants